Overview Statistics Trail Chart Weather Telemetry Raw packets
 

This is the latest recevied weather packets stored in our database for station/object KD7AWQ. If no packets are shown the sender has not sent any weather packets the latest 10 day(s).

<< 34 35 36 37 38 39 40 >>
Time Temp. Humidity Pressure Rain* Wind** Luminosity Snow
1788200427 25° C 49% 1190.7 hPa 0 mm - 432 W/m² -
1788200127 25° C 48% 1190.6 hPa 0 mm - 393 W/m² -
1788199827 25° C 48% 1190.6 hPa 0 mm - 482 W/m² -
1788199521 25° C 48% 1190.1 hPa 0 mm - 525 W/m² -
1788199217 25.56° C 48% 1190.5 hPa 0 mm - 543 W/m² -
1788198912 25° C 48% 1190.5 hPa 0 mm - 830 W/m² -
1788198609 24.44° C 50% 1190.5 hPa 0 mm - 740 W/m² -
1788198304 24.44° C 50% 1190.5 hPa 0 mm - 486 W/m² -
1788198003 24.44° C 50% 1190.7 hPa 0 mm - 567 W/m² -
1788197701 23.89° C 51% 1190.5 hPa 0 mm - 568 W/m² -
1788197397 23.89° C 51% 1190.7 hPa 0 mm - 543 W/m² -
1788197093 23.89° C 53% 1190.6 hPa 0 mm - 466 W/m² -
1788196788 23.89° C 53% 1190.6 hPa 0 mm - 566 W/m² -
1788196483 23.33° C 55% 1190.7 hPa 0 mm - 663 W/m² -
1788196180 22.78° C 56% 1190.6 hPa 0 mm - 641 W/m² -
1788195876 22.78° C 56% 1190.6 hPa 0 mm - 657 W/m² -
1788195573 22.22° C 58% 1190.7 hPa 0 mm - 455 W/m² -
1788195268 22.78° C 59% 1190.7 hPa 0 mm - 379 W/m² -
1788194965 22.22° C 62% 1190.9 hPa 0 mm - 432 W/m² -
1788194661 22.22° C 65% 1190.8 hPa 0 mm - 417 W/m² -
1788194355 21.67° C 64% 1190.6 hPa 0 mm - 383 W/m² -
1788194051 21.67° C 66% 1190.8 hPa 0 mm - 338 W/m² -
1788193749 21.67° C 66% 1190.6 hPa 0 mm - 423 W/m² -
1788193445 21.67° C 68% 1190.6 hPa 0 mm - 423 W/m² -
1788193143 21.67° C 67% 1190.9 hPa 0 mm - 357 W/m² -

* Rain latest hour (hover to see other rain measurements)
** Current wind speed in m/s (hover to see current wind gust speed)